Time,TemperatureF,DewpointF,PressureIn,WindDirection,WindDirectionDegrees,WindSpeedMPH,WindSpeedGustMPH,Humidity,HourlyPrecipIn,Conditions,Clouds,dailyrainin,SolarRadiationWatts/m^2,SoftwareType,DateUTC
2013-07-08 00:01:00,57.6,55.9,29.90,SSW,204,4.0,4.0,94,0.04,CLR,FEW,0.27,0.0,WeatherDisplay:10.37,2013-07-08 05:01:00,
2013-07-08 00:06:00,57.6,55.9,29.90,SE,134,4.6,4.6,94,0.04,RA,FEW,0.28,0.0,WeatherDisplay:10.37,2013-07-08 05:06:00,
2013-07-08 00:11:00,57.5,56.1,29.90,SE,138,4.6,4.6,95,0.03,RA,FEW,0.28,0.0,WeatherDisplay:10.37,2013-07-08 05:11:00,
2013-07-08 00:16:00,57.6,56.2,29.89,SE,138,3.5,3.6,95,0.02,CLR,FEW,0.28,0.0,WeatherDisplay:10.37,2013-07-08 05:16:00,
2013-07-08 00:21:00,57.6,56.2,29.89,SE,138,5.0,5.0,95,0.02,CLR,FEW,0.28,0.0,WeatherDisplay:10.37,2013-07-08 05:21:00,
2013-07-08 00:26:00,57.6,56.5,29.89,SE,138,1.2,1.2,96,0.02,CLR,FEW,0.28,0.0,WeatherDisplay:10.37,2013-07-08 05:26:00,
2013-07-08 00:31:00,57.8,56.7,29.87,ESE,123,5.8,5.8,96,0.01,CLR,FEW,0.28,0.0,WeatherDisplay:10.37,2013-07-08 05:31:00,
2013-07-08 00:37:00,58.0,56.9,29.86,ENE,78,9.2,9.2,96,0.02,RA,FEW,0.29,0.0,WeatherDisplay:10.37,2013-07-08 05:37:00,
2013-07-08 00:42:00,58.0,56.9,29.86,East,79,10.4,10.4,96,0.02,RA,FEW,0.29,0.0,WeatherDisplay:10.37,2013-07-08 05:42:00,
2013-07-08 00:47:00,58.0,56.9,29.85,ENE,71,9.2,9.2,96,0.02,CLR,FEW,0.29,0.0,WeatherDisplay:10.37,2013-07-08 05:47:00,
2013-07-08 00:52:00,57.8,56.7,29.84,ENE,69,6.9,6.9,96,0.02,CLR,FEW,0.29,0.0,WeatherDisplay:10.37,2013-07-08 05:52:00,
2013-07-08 00:57:00,57.8,56.7,29.83,ENE,73,8.1,8.1,96,0.02,CLR,FEW,0.29,0.0,WeatherDisplay:10.37,2013-07-08 05:57:00,
2013-07-08 01:02:00,57.6,56.5,29.83,ENE,67,3.5,3.5,96,0.02,CLR,FEW,0.29,0.0,WeatherDisplay:10.37,2013-07-08 06:02:00,
2013-07-08 01:07:00,57.6,56.5,29.83,ENE,68,1.2,0.0,96,0.01,CLR,FEW,0.29,0.0,WeatherDisplay:10.37,2013-07-08 06:07:00,
2013-07-08 01:12:00,57.6,56.5,29.83,ENE,67,3.5,3.5,96,0.01,CLR,FEW,0.29,0.0,WeatherDisplay:10.37,2013-07-08 06:12:00,
2013-07-08 01:18:00,57.6,56.5,29.83,ENE,67,3.5,3.5,96,0.01,CLR,FEW,0.29,0.0,WeatherDisplay:10.37,2013-07-08 06:18:00,
2013-07-08 01:23:00,57.6,56.5,29.83,ENE,67,3.5,3.5,96,0.01,CLR,FEW,0.29,0.0,WeatherDisplay:10.37,2013-07-08 06:23:00,
2013-07-08 01:28:00,57.8,57.0,29.84,NE,44,6.0,6.0,97,0.01,CLR,FEW,0.29,0.0,WeatherDisplay:10.37,2013-07-08 06:28:00,
2013-07-08 01:33:00,57.8,57.0,29.84,NE,40,7.0,7.0,97,0.00,CLR,FEW,0.29,0.0,WeatherDisplay:10.37,2013-07-08 06:33:00,
2013-07-08 01:38:00,58.0,57.2,29.86,NE,42,4.6,4.6,97,0.00,CLR,FEW,0.29,0.0,WeatherDisplay:10.37,2013-07-08 06:38:00,
2013-07-08 01:43:00,57.8,57.0,29.85,NNE,26,11.5,11.5,97,0.00,CLR,FEW,0.29,0.0,WeatherDisplay:10.37,2013-07-08 06:43:00,
2013-07-08 01:48:00,57.8,56.7,29.86,NNE,29,6.9,6.9,96,0.00,CLR,FEW,0.29,0.0,WeatherDisplay:10.37,2013-07-08 06:48:00,
2013-07-08 01:54:00,57.6,56.5,29.86,NNE,31,6.9,6.9,96,0.00,CLR,FEW,0.29,0.0,WeatherDisplay:10.37,2013-07-08 06:54:00,
2013-07-08 01:59:00,57.6,56.8,29.86,NE,45,4.6,4.6,97,0.00,CLR,FEW,0.29,0.0,WeatherDisplay:10.37,2013-07-08 06:59:00,
2013-07-08 02:04:00,57.6,56.8,29.86,NE,46,4.0,4.0,97,0.00,CLR,FEW,0.29,0.0,WeatherDisplay:10.37,2013-07-08 07:04:00,
2013-07-08 02:09:00,57.6,56.8,29.86,NE,46,6.0,6.0,97,0.00,CLR,FEW,0.29,0.0,WeatherDisplay:10.37,2013-07-08 07:09:00,
2013-07-08 02:14:00,57.6,56.8,29.86,NE,43,2.3,2.3,97,0.00,CLR,FEW,0.29,0.0,WeatherDisplay:10.37,2013-07-08 07:14:00,
2013-07-08 02:19:00,57.6,56.8,29.86,NE,39,6.0,6.0,97,0.00,CLR,FEW,0.29,0.0,WeatherDisplay:10.37,2013-07-08 07:19:00,
2013-07-08 02:24:00,57.6,56.8,29.86,NE,38,2.3,2.3,97,0.00,CLR,FEW,0.29,0.0,WeatherDisplay:10.37,2013-07-08 07:24:00,
2013-07-08 02:29:00,57.8,57.0,29.86,NE,38,3.5,3.5,97,0.00,CLR,FEW,0.29,0.0,WeatherDisplay:10.37,2013-07-08 07:29:00,
2013-07-08 02:35:00,57.8,57.0,29.86,NE,38,2.3,2.7,97,0.00,CLR,FEW,0.29,0.0,WeatherDisplay:10.37,2013-07-08 07:35:00,
2013-07-08 02:40:00,57.8,57.0,29.86,NE,38,3.0,6.0,97,0.00,CLR,FEW,0.29,0.0,WeatherDisplay:10.37,2013-07-08 07:40:00,
2013-07-08 02:45:00,57.8,57.2,29.86,NE,35,3.0,7.0,98,0.00,CLR,FEW,0.29,0.0,WeatherDisplay:10.37,2013-07-08 07:45:00,
2013-07-08 02:50:00,58.0,57.4,29.86,NNE,32,3.0,5.0,98,0.00,CLR,FEW,0.29,0.0,WeatherDisplay:10.37,2013-07-08 07:50:00,
2013-07-08 02:55:00,58.0,57.4,29.86,NNE,31,3.5,3.5,98,0.00,CLR,FEW,0.29,0.0,WeatherDisplay:10.37,2013-07-08 07:55:00,
2013-07-08 03:00:00,58.0,57.4,29.86,NNE,31,5.0,5.0,98,0.00,CLR,FEW,0.29,0.0,WeatherDisplay:10.37,2013-07-08 08:00:00,
2013-07-08 03:05:00,58.1,57.5,29.87,NNE,30,3.0,3.0,98,0.00,CLR,FEW,0.29,0.0,WeatherDisplay:10.37,2013-07-08 08:05:00,
2013-07-08 03:10:00,58.1,57.5,29.87,NNE,30,4.6,4.6,98,0.00,CLR,FEW,0.29,0.0,WeatherDisplay:10.37,2013-07-08 08:10:00,
2013-07-08 03:15:00,58.1,57.5,29.87,NNE,23,8.1,8.1,98,0.00,CLR,FEW,0.29,0.0,WeatherDisplay:10.37,2013-07-08 08:15:00,
2013-07-08 03:20:00,58.1,57.5,29.88,North,7,8.1,8.1,98,0.00,CLR,FEW,0.29,0.0,WeatherDisplay:10.37,2013-07-08 08:20:00,
2013-07-08 03:25:00,58.3,57.7,29.88,North,4,4.6,4.6,98,0.00,CLR,FEW,0.29,0.0,WeatherDisplay:10.37,2013-07-08 08:25:00,
2013-07-08 03:31:00,58.3,57.7,29.88,NW,308,10.4,10.4,98,0.00,CLR,FEW,0.29,0.0,WeatherDisplay:10.37,2013-07-08 08:31:00,
2013-07-08 03:36:00,58.3,57.7,29.88,North,9,9.2,9.2,98,0.00,CLR,FEW,0.29,0.0,WeatherDisplay:10.37,2013-07-08 08:36:00,
2013-07-08 03:41:00,58.0,57.4,29.88,North,5,12.7,12.7,98,0.00,CLR,FEW,0.29,0.0,WeatherDisplay:10.37,2013-07-08 08:41:00,
2013-07-08 03:46:00,57.6,57.0,29.88,North,5,6.9,6.9,98,0.00,CLR,FEW,0.29,0.0,WeatherDisplay:10.37,2013-07-08 08:46:00,
2013-07-08 03:51:00,57.5,56.9,29.89,ENE,67,5.8,5.8,98,0.00,CLR,FEW,0.29,0.0,WeatherDisplay:10.37,2013-07-08 08:51:00,
2013-07-08 03:56:00,57.2,56.6,29.89,NNE,25,9.2,9.2,98,0.00,CLR,FEW,0.29,0.0,WeatherDisplay:10.37,2013-07-08 08:56:00,
2013-07-08 04:01:00,56.7,55.9,29.89,NNE,25,10.4,10.4,97,0.00,CLR,FEW,0.29,0.0,WeatherDisplay:10.37,2013-07-08 09:01:00,
2013-07-08 04:07:00,56.6,55.8,29.89,NNE,20,9.2,9.2,97,0.00,CLR,FEW,0.29,0.0,WeatherDisplay:10.37,2013-07-08 09:07:00,
2013-07-08 04:12:00,56.5,55.7,29.89,NNE,17,4.6,4.6,97,0.00,CLR,FEW,0.29,0.0,WeatherDisplay:10.37,2013-07-08 09:12:00,
2013-07-08 04:17:00,56.3,55.5,29.89,North,11,6.9,6.9,97,0.00,CLR,FEW,0.29,0.0,WeatherDisplay:10.37,2013-07-08 09:17:00,
2013-07-08 04:22:00,56.2,55.4,29.89,NNE,25,4.6,4.6,97,0.00,CLR,FEW,0.29,0.0,WeatherDisplay:10.37,2013-07-08 09:22:00,
2013-07-08 04:27:00,56.0,55.2,29.89,North,354,8.1,8.1,97,0.00,CLR,FEW,0.29,0.0,WeatherDisplay:10.37,2013-07-08 09:27:00,
2013-07-08 04:32:00,56.0,55.2,29.89,North,356,3.5,3.5,97,0.00,CLR,FEW,0.29,0.0,WeatherDisplay:10.37,2013-07-08 09:32:00,
2013-07-08 04:37:00,56.0,55.2,29.89,North,8,6.9,6.9,97,0.00,CLR,FEW,0.29,0.0,WeatherDisplay:10.37,2013-07-08 09:37:00,
2013-07-08 04:42:00,55.9,55.1,29.89,NNE,24,4.6,4.6,97,0.00,CLR,FEW,0.29,0.0,WeatherDisplay:10.37,2013-07-08 09:42:00,
2013-07-08 04:48:00,55.9,55.1,29.89,NNE,21,4.6,4.6,97,0.00,CLR,FEW,0.29,0.0,WeatherDisplay:10.37,2013-07-08 09:48:00,
2013-07-08 04:53:00,55.9,55.1,29.89,NNE,23,4.6,4.6,97,0.00,CLR,FEW,0.29,0.0,WeatherDisplay:10.37,2013-07-08 09:53:00,
2013-07-08 04:58:00,55.7,55.1,29.88,NNE,23,3.5,3.5,98,0.00,CLR,FEW,0.29,0.0,WeatherDisplay:10.37,2013-07-08 09:58:00,
2013-07-08 05:03:00,55.7,54.9,29.88,NNE,29,3.5,3.5,97,0.00,CLR,FEW,0.29,0.0,WeatherDisplay:10.37,2013-07-08 10:03:00,
2013-07-08 05:08:00,55.7,55.1,29.87,NE,36,5.0,5.0,98,0.00,CLR,FEW,0.29,0.0,WeatherDisplay:10.37,2013-07-08 10:08:00,
2013-07-08 05:13:00,55.7,55.1,29.87,NE,34,4.6,4.6,98,0.00,CLR,FEW,0.29,0.0,WeatherDisplay:10.37,2013-07-08 10:13:00,
2013-07-08 05:18:00,55.7,55.1,29.87,NE,34,4.0,4.0,98,0.00,CLR,FEW,0.29,0.0,WeatherDisplay:10.37,2013-07-08 10:18:00,
2013-07-08 05:24:00,55.6,55.0,29.87,NE,38,4.6,4.6,98,0.00,CLR,FEW,0.29,0.0,WeatherDisplay:10.37,2013-07-08 10:24:00,
2013-07-08 05:29:00,55.6,55.0,29.88,NE,36,3.5,3.5,98,0.00,CLR,FEW,0.29,0.0,WeatherDisplay:10.37,2013-07-08 10:29:00,
2013-07-08 05:34:00,55.6,55.0,29.88,NE,40,4.6,4.6,98,0.00,CLR,FEW,0.29,0.0,WeatherDisplay:10.37,2013-07-08 10:34:00,
2013-07-08 05:39:00,55.4,54.8,29.89,NE,35,6.9,6.9,98,0.00,CLR,FEW,0.29,0.0,WeatherDisplay:10.37,2013-07-08 10:39:00,
2013-07-08 05:44:00,55.4,54.8,29.89,NE,41,4.6,4.6,98,0.00,CLR,FEW,0.29,0.0,WeatherDisplay:10.37,2013-07-08 10:44:00,
2013-07-08 05:49:00,55.4,54.8,29.89,NE,51,4.6,4.6,98,0.00,CLR,FEW,0.29,0.0,WeatherDisplay:10.37,2013-07-08 10:49:00,
2013-07-08 05:54:00,55.4,54.8,29.89,NE,48,3.5,3.5,98,0.00,CLR,FEW,0.29,0.0,WeatherDisplay:10.37,2013-07-08 10:54:00,
2013-07-08 05:59:00,55.4,54.8,29.89,NNE,32,6.9,6.9,98,0.00,CLR,FEW,0.29,0.0,WeatherDisplay:10.37,2013-07-08 10:59:00,
2013-07-08 06:05:00,55.4,54.8,29.89,NE,35,5.8,5.8,98,0.00,CLR,FEW,0.29,0.0,WeatherDisplay:10.37,2013-07-08 11:05:00,
2013-07-08 06:10:00,55.4,54.8,29.89,NE,35,2.0,5.0,98,0.00,CLR,FEW,0.29,0.0,WeatherDisplay:10.37,2013-07-08 11:10:00,
2013-07-08 06:15:00,55.4,54.8,29.90,NE,35,1.0,5.0,98,0.00,CLR,FEW,0.29,0.0,WeatherDisplay:10.37,2013-07-08 11:15:00,
2013-07-08 06:20:00,55.4,54.8,29.90,NNE,28,2.0,7.0,98,0.00,CLR,FEW,0.29,0.0,WeatherDisplay:10.37,2013-07-08 11:20:00,
2013-07-08 06:25:00,55.4,54.8,29.90,NNE,22,2.0,5.0,98,0.00,CLR,FEW,0.29,0.0,WeatherDisplay:10.37,2013-07-08 11:25:00,
2013-07-08 06:30:00,55.5,55.0,29.90,NNE,22,0.0,3.0,98,0.00,CLR,FEW,0.29,0.0,WeatherDisplay:10.37,2013-07-08 11:30:00,
2013-07-08 06:35:00,55.6,55.0,29.90,NNE,22,1.0,3.0,98,0.00,CLR,FEW,0.29,0.0,WeatherDisplay:10.37,2013-07-08 11:35:00,
2013-07-08 06:40:00,55.6,55.0,29.90,NNE,22,1.0,5.0,98,0.00,CLR,FEW,0.29,0.0,WeatherDisplay:10.37,2013-07-08 11:40:00,
2013-07-08 06:45:00,55.7,55.1,29.90,NNE,22,3.0,4.0,98,0.00,CLR,FEW,0.29,0.0,WeatherDisplay:10.37,2013-07-08 11:45:00,
2013-07-08 06:50:00,55.9,55.6,29.89,NNE,22,3.5,3.5,99,0.00,CLR,FEW,0.29,0.0,WeatherDisplay:10.37,2013-07-08 11:50:00,
2013-07-08 06:55:00,56.0,55.7,29.89,NNE,27,3.0,6.0,99,0.00,CLR,FEW,0.29,0.0,WeatherDisplay:10.37,2013-07-08 11:55:00,
2013-07-08 07:00:00,56.2,55.9,29.89,NNE,27,3.0,8.0,99,0.00,RA,FEW,0.00,0.0,WeatherDisplay:10.37,2013-07-08 12:00:00,
2013-07-08 07:05:00,56.3,56.0,29.89,NNE,18,0.0,8.0,99,0.00,RA,FEW,0.00,0.0,WeatherDisplay:10.37,2013-07-08 12:05:00,
2013-07-08 07:10:00,56.3,56.0,29.89,North,11,6.0,7.0,99,0.00,OVC,FEW,0.00,0.0,WeatherDisplay:10.37,2013-07-08 12:10:00,
2013-07-08 07:15:00,56.5,56.2,29.90,North,10,5.0,8.0,99,0.00,OVC,FEW,0.00,0.0,WeatherDisplay:10.37,2013-07-08 12:15:00,
2013-07-08 07:20:00,56.5,56.2,29.90,North,11,3.0,13.0,99,0.00,OVC,FEW,0.00,0.0,WeatherDisplay:10.37,2013-07-08 12:20:00,
2013-07-08 07:25:00,56.6,56.3,29.90,NNE,13,1.0,7.0,99,0.00,OVC,FEW,0.00,0.0,WeatherDisplay:10.37,2013-07-08 12:25:00,
2013-07-08 07:30:00,56.6,56.4,29.90,NNE,14,2.0,7.0,99,0.00,OVC,FEW,0.00,0.0,WeatherDisplay:10.37,2013-07-08 12:30:00,
2013-07-08 07:35:00,56.7,56.5,29.91,North,2,6.0,9.0,99,0.00,OVC,FEW,0.00,0.0,WeatherDisplay:10.37,2013-07-08 12:35:00,
2013-07-08 07:40:00,56.9,56.6,29.91,North,350,5.0,13.0,99,0.00,OVC,FEW,0.00,0.0,WeatherDisplay:10.37,2013-07-08 12:40:00,
2013-07-08 07:45:00,57.2,56.9,29.92,NNW,337,4.6,4.6,99,0.00,OVC,FEW,0.00,0.0,WeatherDisplay:10.37,2013-07-08 12:45:00,
2013-07-08 07:50:00,57.2,56.9,29.91,NNW,333,0.0,0.0,99,0.00,OVC,FEW,0.00,0.0,WeatherDisplay:10.37,2013-07-08 12:50:00,
2013-07-08 07:55:00,57.5,57.2,29.91,NNW,333,3.5,3.5,99,0.00,OVC,FEW,0.00,0.0,WeatherDisplay:10.37,2013-07-08 12:55:00,
2013-07-08 08:00:00,57.5,57.2,29.91,NNW,333,3.5,3.5,99,0.00,OVC,FEW,0.00,0.0,WeatherDisplay:10.37,2013-07-08 13:00:00,
2013-07-08 08:05:00,57.6,57.3,29.92,NNW,344,4.6,4.6,99,0.00,OVC,FEW,0.00,0.0,WeatherDisplay:10.37,2013-07-08 13:05:00,
2013-07-08 08:10:00,57.6,57.3,29.92,North,355,6.9,6.9,99,0.00,OVC,FEW,0.00,0.0,WeatherDisplay:10.37,2013-07-08 13:10:00,
2013-07-08 08:16:00,57.6,57.3,29.92,North,354,6.9,6.9,99,0.00,OVC,FEW,0.00,0.0,WeatherDisplay:10.37,2013-07-08 13:16:00,
2013-07-08 08:21:00,57.8,57.5,29.92,North,355,4.6,4.6,99,0.00,OVC,FEW,0.00,0.0,WeatherDisplay:10.37,2013-07-08 13:21:00,
2013-07-08 08:26:00,57.8,57.5,29.92,North,355,2.3,2.3,99,0.00,OVC,FEW,0.00,0.0,WeatherDisplay:10.37,2013-07-08 13:26:00,
2013-07-08 08:31:00,58.0,57.7,29.92,NNE,13,3.5,3.5,99,0.00,OVC,FEW,0.00,0.0,WeatherDisplay:10.37,2013-07-08 13:31:00,
2013-07-08 08:36:00,58.3,58.0,29.92,NE,40,5.0,5.0,99,0.00,OVC,FEW,0.00,0.0,WeatherDisplay:10.37,2013-07-08 13:36:00,
2013-07-08 08:41:00,58.4,58.4,29.92,NE,47,6.9,6.9,100,0.00,OVC,FEW,0.00,0.0,WeatherDisplay:10.37,2013-07-08 13:41:00,
2013-07-08 08:46:00,58.4,58.4,29.93,NE,45,3.5,3.5,100,0.00,OVC,FEW,0.00,0.0,WeatherDisplay:10.37,2013-07-08 13:46:00,
2013-07-08 08:51:00,58.4,58.1,29.93,NE,45,0.0,0.0,99,0.00,OVC,FEW,0.00,0.0,WeatherDisplay:10.37,2013-07-08 13:51:00,
2013-07-08 08:57:00,58.6,58.3,29.93,NE,44,3.5,4.2,99,0.00,OVC,FEW,0.00,0.0,WeatherDisplay:10.37,2013-07-08 13:57:00,
2013-07-08 09:02:00,58.6,58.3,29.94,NE,41,5.8,5.8,99,0.00,OVC,FEW,0.00,0.0,WeatherDisplay:10.37,2013-07-08 14:02:00,
2013-07-08 09:07:00,58.7,58.4,29.94,NE,40,5.8,5.8,99,0.00,OVC,FEW,0.00,0.0,WeatherDisplay:10.37,2013-07-08 14:07:00,
2013-07-08 09:12:00,58.7,57.6,29.95,NE,38,3.5,3.5,96,0.00,OVC,FEW,0.00,0.0,WeatherDisplay:10.37,2013-07-08 14:12:00,
2013-07-08 09:17:00,58.9,58.9,29.94,NNE,20,6.9,6.9,100,0.00,OVC,FEW,0.00,0.0,WeatherDisplay:10.37,2013-07-08 14:17:00,
2013-07-08 09:22:00,58.9,58.6,29.95,NNE,20,5.0,5.0,99,0.00,OVC,FEW,0.00,0.0,WeatherDisplay:10.37,2013-07-08 14:22:00,
2013-07-08 09:27:00,59.0,58.7,29.95,North,10,9.2,9.2,99,0.00,OVC,FEW,0.00,0.0,WeatherDisplay:10.37,2013-07-08 14:27:00,
2013-07-08 09:33:00,59.0,58.7,29.95,NNE,28,6.9,6.9,99,0.00,OVC,FEW,0.00,0.0,WeatherDisplay:10.37,2013-07-08 14:33:00,
2013-07-08 09:38:00,59.0,58.7,29.95,NNE,28,3.5,3.5,99,0.00,OVC,FEW,0.00,0.0,WeatherDisplay:10.37,2013-07-08 14:38:00,
2013-07-08 09:43:00,59.0,58.7,29.95,NNE,28,3.5,3.5,99,0.00,OVC,FEW,0.00,0.0,WeatherDisplay:10.37,2013-07-08 14:43:00,
2013-07-08 09:48:00,59.2,58.9,29.95,NNE,27,6.9,6.9,99,0.00,OVC,FEW,0.00,0.0,WeatherDisplay:10.37,2013-07-08 14:48:00,
2013-07-08 09:53:00,59.3,59.0,29.95,NNE,27,3.5,3.5,99,0.00,OVC,FEW,0.00,0.0,WeatherDisplay:10.37,2013-07-08 14:53:00,
2013-07-08 09:58:00,59.5,59.5,29.96,NNE,27,4.6,4.6,100,0.00,OVC,FEW,0.00,0.0,WeatherDisplay:10.37,2013-07-08 14:58:00,
2013-07-08 10:03:00,59.6,59.6,29.95,NNE,27,3.5,3.5,100,0.00,OVC,FEW,0.00,0.0,WeatherDisplay:10.37,2013-07-08 15:03:00,
2013-07-08 10:08:00,59.9,59.9,29.96,NE,41,5.8,5.8,100,0.00,OVC,FEW,0.00,0.0,WeatherDisplay:10.37,2013-07-08 15:08:00,
2013-07-08 10:14:00,60.1,60.1,29.96,NE,53,6.0,6.0,100,0.00,OVC,FEW,0.00,0.0,WeatherDisplay:10.37,2013-07-08 15:14:00,
2013-07-08 10:19:00,60.4,60.4,29.97,NE,44,2.3,2.3,100,0.00,OVC,FEW,0.00,0.0,WeatherDisplay:10.37,2013-07-08 15:19:00,
2013-07-08 10:24:00,60.5,60.5,29.97,ENE,59,8.1,8.1,100,0.00,OVC,FEW,0.00,0.0,WeatherDisplay:10.37,2013-07-08 15:24:00,
2013-07-08 10:29:00,61.2,61.2,29.97,NE,48,5.8,5.8,100,0.00,OVC,FEW,0.00,0.0,WeatherDisplay:10.37,2013-07-08 15:29:00,
2013-07-08 10:34:00,61.0,60.4,29.97,NE,48,4.6,4.6,98,0.00,OVC,FEW,0.00,0.0,WeatherDisplay:10.37,2013-07-08 15:34:00,
2013-07-08 10:39:00,61.5,60.3,29.97,ENE,66,4.6,4.6,96,0.00,OVC,FEW,0.00,0.0,WeatherDisplay:10.37,2013-07-08 15:39:00,
2013-07-08 10:44:00,61.8,60.4,29.97,ENE,60,3.5,3.5,95,0.00,OVC,FEW,0.00,0.0,WeatherDisplay:10.37,2013-07-08 15:44:00,
2013-07-08 10:50:00,62.4,60.7,29.97,ENE,60,4.6,4.6,94,0.00,OVC,FEW,0.00,0.0,WeatherDisplay:10.37,2013-07-08 15:50:00,
2013-07-08 10:55:00,62.9,60.8,29.97,ENE,60,3.5,3.5,93,0.00,OVC,FEW,0.00,0.0,WeatherDisplay:10.37,2013-07-08 15:55:00,
2013-07-08 11:00:00,63.1,60.7,29.96,ENE,60,2.0,5.0,92,0.00,OVC,FEW,0.00,0.0,WeatherDisplay:10.37,2013-07-08 16:00:00,
2013-07-08 11:05:00,63.9,61.8,29.96,ENE,60,1.0,5.0,93,0.00,OVC,FEW,0.00,0.0,WeatherDisplay:10.37,2013-07-08 16:05:00,
2013-07-08 11:10:00,64.1,61.7,29.96,ENE,60,0.0,5.0,92,0.00,OVC,FEW,0.00,0.0,WeatherDisplay:10.37,2013-07-08 16:10:00,
2013-07-08 11:15:00,64.2,61.2,29.96,ENE,60,0.0,3.0,90,0.00,OVC,FEW,0.00,0.0,WeatherDisplay:10.37,2013-07-08 16:15:00,
2013-07-08 11:20:00,64.3,62.2,29.97,ENE,57,3.0,5.0,93,0.00,OVC,FEW,0.00,0.0,WeatherDisplay:10.37,2013-07-08 16:20:00,
2013-07-08 11:25:00,64.0,61.6,29.97,North,353,5.0,9.0,92,0.00,OVC,FEW,0.00,0.0,WeatherDisplay:10.37,2013-07-08 16:25:00,
2013-07-08 11:30:00,64.5,62.7,29.97,NNW,333,0.0,0.0,94,0.00,OVC,FEW,0.00,0.0,WeatherDisplay:10.37,2013-07-08 16:30:00,
2013-07-08 11:35:00,65.2,62.2,29.96,NNW,333,2.3,2.3,90,0.00,OVC,FEW,0.00,0.0,WeatherDisplay:10.37,2013-07-08 16:35:00,
2013-07-08 11:40:00,65.6,62.3,29.96,NNW,333,0.0,0.0,89,0.00,OVC,FEW,0.00,0.0,WeatherDisplay:10.37,2013-07-08 16:40:00,
2013-07-08 11:46:00,66.0,63.3,29.96,NNW,333,2.3,2.3,91,0.00,OVC,FEW,0.00,0.0,WeatherDisplay:10.37,2013-07-08 16:46:00,
2013-07-08 11:51:00,66.1,63.4,29.96,NNW,333,4.0,4.0,91,0.00,OVC,FEW,0.00,0.0,WeatherDisplay:10.37,2013-07-08 16:51:00,
2013-07-08 11:56:00,66.9,63.2,29.96,NNW,333,2.3,2.3,88,0.00,OVC,FEW,0.00,0.0,WeatherDisplay:10.37,2013-07-08 16:56:00,
2013-07-08 12:01:00,67.6,62.9,29.95,NNW,333,1.2,0.0,85,0.00,OVC,FEW,0.00,0.0,WeatherDisplay:10.37,2013-07-08 17:01:00,
2013-07-08 12:06:00,68.6,63.6,29.96,NNW,333,3.5,3.5,84,0.00,OVC,FEW,0.00,0.0,WeatherDisplay:10.37,2013-07-08 17:06:00,
2013-07-08 12:11:00,68.6,64.9,29.95,NNW,333,2.3,2.3,88,0.00,OVC,FEW,0.00,0.0,WeatherDisplay:10.37,2013-07-08 17:11:00,
2013-07-08 12:17:00,69.1,65.1,29.95,NNW,333,4.6,4.6,87,0.00,OVC,FEW,0.00,0.0,WeatherDisplay:10.37,2013-07-08 17:17:00,
2013-07-08 12:22:00,69.6,64.5,29.95,NNW,333,4.6,4.6,84,0.00,OVC,FEW,0.00,0.0,WeatherDisplay:10.37,2013-07-08 17:22:00,
2013-07-08 12:27:00,70.1,65.0,29.95,NNW,332,8.1,8.1,84,0.00,OVC,FEW,0.00,0.0,WeatherDisplay:10.37,2013-07-08 17:27:00,
2013-07-08 12:32:00,70.1,65.0,29.95,NNW,332,3.5,3.5,84,0.00,OVC,FEW,0.00,0.0,WeatherDisplay:10.37,2013-07-08 17:32:00,
2013-07-08 12:37:00,70.6,64.8,29.95,NNW,332,8.0,8.0,82,0.00,OVC,FEW,0.00,0.0,WeatherDisplay:10.37,2013-07-08 17:37:00,
2013-07-08 12:42:00,71.5,66.1,29.95,North,349,4.6,4.6,83,0.00,OVC,FEW,0.00,0.0,WeatherDisplay:10.37,2013-07-08 17:42:00,
2013-07-08 12:48:00,72.0,66.2,29.94,North,355,7.0,7.0,82,0.00,OVC,FEW,0.00,0.0,WeatherDisplay:10.37,2013-07-08 17:48:00,
2013-07-08 12:54:00,72.7,66.2,29.94,NNE,15,8.1,8.1,80,0.00,OVC,FEW,0.00,0.0,WeatherDisplay:10.37,2013-07-08 17:54:00,
2013-07-08 12:59:00,73.0,65.4,29.94,NNE,13,6.9,6.9,77,0.00,OVC,FEW,0.00,0.0,WeatherDisplay:10.37,2013-07-08 17:59:00,
2013-07-08 13:04:00,72.8,65.5,29.94,North,350,11.5,11.5,78,0.00,OVC,FEW,0.00,0.0,WeatherDisplay:10.37,2013-07-08 18:04:00,
2013-07-08 13:10:00,73.6,66.3,29.95,NNW,347,7.0,10.0,78,0.00,OVC,FEW,0.00,0.0,WeatherDisplay:10.37,2013-07-08 18:10:00,
2013-07-08 13:16:00,73.3,66.8,29.95,NW,323,6.9,6.9,80,0.00,OVC,FEW,0.00,0.0,WeatherDisplay:10.37,2013-07-08 18:16:00,
2013-07-08 13:20:00,73.7,67.5,29.94,NNW,340,9.2,9.2,81,0.00,OVC,FEW,0.00,0.0,WeatherDisplay:10.37,2013-07-08 18:20:00,
2013-07-08 13:26:00,73.9,65.9,29.95,NNW,341,3.5,3.5,76,0.00,OVC,FEW,0.00,0.0,WeatherDisplay:10.37,2013-07-08 18:26:00,
2013-07-08 13:31:00,73.5,65.8,29.95,NNW,333,7.0,7.0,77,0.00,OVC,FEW,0.00,0.0,WeatherDisplay:10.37,2013-07-08 18:31:00,
2013-07-08 13:36:00,73.9,66.6,29.95,NNE,13,9.2,9.2,78,0.00,OVC,FEW,0.00,0.0,WeatherDisplay:10.37,2013-07-08 18:36:00,
2013-07-08 13:41:00,74.4,66.7,29.95,North,350,6.0,6.0,77,0.00,OVC,FEW,0.00,0.0,WeatherDisplay:10.37,2013-07-08 18:41:00,
2013-07-08 13:48:00,74.4,66.7,29.95,North,3,9.2,9.2,77,0.00,OVC,FEW,0.00,0.0,WeatherDisplay:10.37,2013-07-08 18:48:00,
2013-07-08 13:54:00,74.2,66.1,29.95,NNW,338,6.9,6.9,76,0.00,OVC,FEW,0.00,0.0,WeatherDisplay:10.37,2013-07-08 18:54:00,
2013-07-08 13:59:00,74.0,66.7,29.94,NW,321,5.8,5.8,78,0.00,OVC,FEW,0.00,0.0,WeatherDisplay:10.37,2013-07-08 18:59:00,
2013-07-08 14:05:00,74.6,66.1,29.94,North,352,5.8,5.8,75,0.00,OVC,FEW,0.00,0.0,WeatherDisplay:10.37,2013-07-08 19:05:00,
2013-07-08 14:11:00,74.6,67.3,29.94,NNW,329,9.2,9.2,78,0.00,OVC,FEW,0.00,0.0,WeatherDisplay:10.37,2013-07-08 19:11:00,
2013-07-08 14:16:00,74.7,66.6,29.94,North,358,6.9,6.9,76,0.00,OVC,FEW,0.00,0.0,WeatherDisplay:10.37,2013-07-08 19:16:00,
2013-07-08 14:23:00,74.9,66.8,29.94,NNW,344,4.6,4.6,76,0.00,OVC,FEW,0.00,0.0,WeatherDisplay:10.37,2013-07-08 19:23:00,
2013-07-08 14:29:00,75.3,67.6,29.94,North,352,4.6,4.6,77,0.00,OVC,FEW,0.00,0.0,WeatherDisplay:10.37,2013-07-08 19:29:00,
2013-07-08 14:34:00,75.3,67.6,29.94,NNW,333,8.1,8.1,77,0.00,OVC,FEW,0.00,0.0,WeatherDisplay:10.37,2013-07-08 19:34:00,
2013-07-08 14:39:00,75.6,67.1,29.94,North,3,8.1,8.1,75,0.00,OVC,FEW,0.00,0.0,WeatherDisplay:10.37,2013-07-08 19:39:00,
2013-07-08 14:45:00,75.6,66.7,29.94,North,2,4.6,4.6,74,0.00,OVC,FEW,0.00,0.0,WeatherDisplay:10.37,2013-07-08 19:45:00,
2013-07-08 14:50:00,75.8,66.9,29.94,North,354,6.9,6.9,74,0.00,OVC,FEW,0.00,0.0,WeatherDisplay:10.37,2013-07-08 19:50:00,
2013-07-08 14:55:00,76.1,66.8,29.94,NW,325,9.2,9.2,73,0.00,OVC,FEW,0.00,0.0,WeatherDisplay:10.37,2013-07-08 19:55:00,
2013-07-08 15:01:00,75.6,67.1,29.94,NNW,331,10.4,10.4,75,0.00,OVC,FEW,0.00,0.0,WeatherDisplay:10.37,2013-07-08 20:01:00,
2013-07-08 15:06:00,76.1,66.8,29.94,NNW,327,3.5,3.5,73,0.00,OVC,FEW,0.00,0.0,WeatherDisplay:10.37,2013-07-08 20:06:00,
2013-07-08 15:12:00,75.8,67.7,29.94,NNW,328,8.0,8.0,76,0.00,OVC,FEW,0.00,0.0,WeatherDisplay:10.37,2013-07-08 20:12:00,
2013-07-08 15:17:00,76.1,67.2,29.93,NNW,329,8.0,8.0,74,0.00,OVC,FEW,0.00,0.0,WeatherDisplay:10.37,2013-07-08 20:17:00,
2013-07-08 15:23:00,76.3,67.4,29.93,NW,326,9.2,9.2,74,0.00,OVC,FEW,0.00,0.0,WeatherDisplay:10.37,2013-07-08 20:23:00,
2013-07-08 15:28:00,76.1,66.4,29.93,NNW,331,6.9,6.9,72,0.00,OVC,FEW,0.00,0.0,WeatherDisplay:10.37,2013-07-08 20:28:00,
2013-07-08 15:33:00,76.1,66.4,29.93,NNW,331,8.1,8.1,72,0.00,OVC,FEW,0.00,0.0,WeatherDisplay:10.37,2013-07-08 20:33:00,
2013-07-08 15:41:00,76.0,67.9,29.93,NW,323,4.6,5.7,76,0.00,OVC,FEW,0.00,0.0,WeatherDisplay:10.37,2013-07-08 20:41:00,
2013-07-08 15:46:00,75.8,67.3,29.93,NW,325,7.0,7.0,75,0.00,OVC,FEW,0.00,0.0,WeatherDisplay:10.37,2013-07-08 20:46:00,
2013-07-08 15:51:00,76.3,67.0,29.93,North,355,6.9,6.9,73,0.00,OVC,FEW,0.00,0.0,WeatherDisplay:10.37,2013-07-08 20:51:00,
2013-07-08 15:57:00,76.1,67.6,29.93,NW,309,8.1,8.1,75,0.00,OVC,FEW,0.00,0.0,WeatherDisplay:10.37,2013-07-08 20:57:00,
2013-07-08 16:02:00,76.5,68.0,29.93,NNW,343,8.1,8.1,75,0.00,OVC,FEW,0.00,0.0,WeatherDisplay:10.37,2013-07-08 21:02:00,
2013-07-08 16:07:00,76.5,68.4,29.93,NNW,337,6.9,6.9,76,0.00,OVC,FEW,0.00,0.0,WeatherDisplay:10.37,2013-07-08 21:07:00,
2013-07-08 16:12:00,76.8,68.3,29.93,NW,312,8.1,8.1,75,0.00,OVC,FEW,0.00,0.0,WeatherDisplay:10.37,2013-07-08 21:12:00,
2013-07-08 16:18:00,76.7,68.2,29.93,NW,318,8.0,8.0,75,0.00,OVC,FEW,0.00,0.0,WeatherDisplay:10.37,2013-07-08 21:18:00,
2013-07-08 16:24:00,76.8,67.9,29.93,NNW,344,9.2,9.2,74,0.00,OVC,FEW,0.00,0.0,WeatherDisplay:10.37,2013-07-08 21:24:00,
2013-07-08 16:29:00,76.8,67.1,29.93,NNE,15,8.1,8.1,72,0.00,OVC,FEW,0.00,0.0,WeatherDisplay:10.37,2013-07-08 21:29:00,
2013-07-08 16:35:00,76.8,67.9,29.94,North,1,6.0,10.0,74,0.00,OVC,FEW,0.00,0.0,WeatherDisplay:10.37,2013-07-08 21:35:00,
2013-07-08 16:41:00,76.5,67.6,29.93,NW,310,8.1,8.1,74,0.00,OVC,FEW,0.00,0.0,WeatherDisplay:10.37,2013-07-08 21:41:00,
2013-07-08 16:47:00,77.0,68.9,29.93,NNW,334,3.5,3.5,76,0.00,OVC,FEW,0.00,0.0,WeatherDisplay:10.37,2013-07-08 21:47:00,
2013-07-08 16:52:00,77.4,67.7,29.94,NNW,332,10.4,10.4,72,0.00,OVC,FEW,0.00,0.0,WeatherDisplay:10.37,2013-07-08 21:52:00,
2013-07-08 16:58:00,77.2,67.9,29.94,NNW,345,9.2,9.2,73,0.00,OVC,FEW,0.00,0.0,WeatherDisplay:10.37,2013-07-08 21:58:00,
2013-07-08 17:03:00,76.8,68.7,29.93,NNE,18,9.2,9.2,76,0.00,OVC,FEW,0.00,0.0,WeatherDisplay:10.37,2013-07-08 22:03:00,
2013-07-08 17:09:00,76.3,67.4,29.94,NE,45,6.9,6.9,74,0.00,OVC,FEW,0.00,0.0,WeatherDisplay:10.37,2013-07-08 22:09:00,
2013-07-08 17:14:00,76.1,67.2,29.94,NNE,30,6.9,6.9,74,0.00,OVC,FEW,0.00,0.0,WeatherDisplay:10.37,2013-07-08 22:14:00,
2013-07-08 17:20:00,76.1,68.0,29.94,North,4,8.1,8.1,76,0.00,OVC,FEW,0.00,0.0,WeatherDisplay:10.37,2013-07-08 22:20:00,
2013-07-08 17:25:00,75.8,67.7,29.94,North,9,3.0,7.0,76,0.00,OVC,FEW,0.00,0.0,WeatherDisplay:10.37,2013-07-08 22:25:00,
2013-07-08 17:30:00,75.4,67.3,29.94,North,9,12.7,12.7,76,0.00,OVC,FEW,0.00,0.0,WeatherDisplay:10.37,2013-07-08 22:30:00,
2013-07-08 17:35:00,75.1,67.0,29.94,North,5,9.2,9.2,76,0.00,OVC,FEW,0.00,0.0,WeatherDisplay:10.37,2013-07-08 22:35:00,
2013-07-08 17:41:00,74.6,66.9,29.94,North,3,6.9,6.9,77,0.00,OVC,FEW,0.00,0.0,WeatherDisplay:10.37,2013-07-08 22:41:00,
2013-07-08 17:47:00,74.4,66.7,29.94,North,357,3.5,3.5,77,0.00,OVC,FEW,0.00,0.0,WeatherDisplay:10.37,2013-07-08 22:47:00,
2013-07-08 17:54:00,74.6,66.9,29.94,NNE,15,6.9,6.9,77,0.00,OVC,FEW,0.00,0.0,WeatherDisplay:10.37,2013-07-08 22:54:00,
2013-07-08 17:59:00,74.4,67.5,29.95,North,7,11.5,11.5,79,0.00,OVC,FEW,0.00,0.0,WeatherDisplay:10.37,2013-07-08 22:59:00,
2013-07-08 18:04:00,74.0,66.7,29.95,North,4,10.4,10.4,78,0.00,OVC,FEW,0.00,0.0,WeatherDisplay:10.37,2013-07-08 23:04:00,
2013-07-08 18:10:00,73.9,67.0,29.95,North,354,10.4,10.4,79,0.00,OVC,FEW,0.00,0.0,WeatherDisplay:10.37,2013-07-08 23:10:00,
2013-07-08 18:15:00,73.9,67.0,29.95,North,352,6.0,10.0,79,0.00,OVC,FEW,0.00,0.0,WeatherDisplay:10.37,2013-07-08 23:15:00,
2013-07-08 18:20:00,73.9,67.0,29.95,North,357,2.0,12.0,79,0.00,OVC,FEW,0.00,0.0,WeatherDisplay:10.37,2013-07-08 23:20:00,
2013-07-08 18:25:00,73.5,66.6,29.95,NNE,19,7.0,9.0,79,0.00,OVC,FEW,0.00,0.0,WeatherDisplay:10.37,2013-07-08 23:25:00,
2013-07-08 18:30:00,73.3,66.0,29.94,NNE,29,8.1,8.1,78,0.00,OVC,FEW,0.00,0.0,WeatherDisplay:10.37,2013-07-08 23:30:00,
2013-07-08 18:35:00,73.3,66.0,29.94,NE,37,6.9,6.9,78,0.00,OVC,FEW,0.00,0.0,WeatherDisplay:10.37,2013-07-08 23:35:00,
2013-07-08 18:40:00,73.0,66.1,29.94,NNE,32,9.2,9.2,79,0.00,OVC,FEW,0.00,0.0,WeatherDisplay:10.37,2013-07-08 23:40:00,
2013-07-08 18:46:00,72.8,66.3,29.94,NNE,33,5.0,5.3,80,0.00,OVC,FEW,0.00,0.0,WeatherDisplay:10.37,2013-07-08 23:46:00,
2013-07-08 18:51:00,72.8,66.3,29.94,NE,37,3.5,3.5,80,0.00,OVC,FEW,0.00,0.0,WeatherDisplay:10.37,2013-07-08 23:51:00,
2013-07-08 18:56:00,72.7,66.2,29.94,NE,35,6.9,6.9,80,0.00,OVC,FEW,0.00,0.0,WeatherDisplay:10.37,2013-07-08 23:56:00,
2013-07-08 19:02:00,72.7,66.2,29.94,NNE,21,6.9,6.9,80,0.00,,FEW,0.00,0.0,WeatherDisplay:10.37,2013-07-09 00:02:00,
2013-07-08 19:08:00,72.3,66.1,29.94,NNE,22,3.5,3.7,81,0.00,,FEW,0.00,0.0,WeatherDisplay:10.37,2013-07-09 00:08:00,
2013-07-08 19:13:00,72.5,66.3,29.94,NNE,23,4.6,4.6,81,0.00,,FEW,0.00,0.0,WeatherDisplay:10.37,2013-07-09 00:13:00,
2013-07-08 19:19:00,72.3,66.5,29.94,NNE,23,3.5,3.5,82,0.00,,FEW,0.00,0.0,WeatherDisplay:10.37,2013-07-09 00:19:00,
2013-07-08 19:24:00,72.1,65.9,29.94,NE,36,4.6,4.6,81,0.00,,FEW,0.00,0.0,WeatherDisplay:10.37,2013-07-09 00:24:00,
2013-07-08 19:29:00,72.1,65.9,29.94,NE,35,5.8,5.8,81,0.00,,FEW,0.00,0.0,WeatherDisplay:10.37,2013-07-09 00:29:00,
2013-07-08 19:35:00,72.0,65.8,29.94,NE,37,3.0,7.0,81,0.00,,FEW,0.00,0.0,WeatherDisplay:10.37,2013-07-09 00:35:00,
2013-07-08 19:40:00,71.8,65.7,29.94,NE,37,3.0,6.0,81,0.00,,FEW,0.00,0.0,WeatherDisplay:10.37,2013-07-09 00:40:00,
2013-07-08 19:45:00,71.5,65.7,29.94,NE,35,2.0,5.0,82,0.00,,FEW,0.00,0.0,WeatherDisplay:10.37,2013-07-09 00:45:00,
2013-07-08 19:50:00,70.9,65.8,29.94,NE,35,2.3,2.3,84,0.00,,FEW,0.00,0.0,WeatherDisplay:10.37,2013-07-09 00:50:00,
2013-07-08 19:56:00,70.4,65.7,29.94,NE,52,5.8,5.8,85,0.00,,FEW,0.00,0.0,WeatherDisplay:10.37,2013-07-09 00:56:00,
2013-07-08 20:01:00,70.1,65.7,29.94,NE,55,3.5,3.5,86,0.00,,FEW,0.00,0.0,WeatherDisplay:10.37,2013-07-09 01:01:00,
2013-07-08 20:09:00,69.9,65.5,29.94,NE,55,3.5,3.5,86,0.00,,FEW,0.00,0.0,WeatherDisplay:10.37,2013-07-09 01:09:00,
2013-07-08 20:14:00,69.6,65.6,29.94,NE,55,6.9,6.9,87,0.00,,FEW,0.00,0.0,WeatherDisplay:10.37,2013-07-09 01:14:00,
2013-07-08 20:19:00,69.3,66.2,29.95,NE,55,3.5,3.5,90,0.00,,FEW,0.00,0.0,WeatherDisplay:10.37,2013-07-09 01:19:00,
2013-07-08 20:25:00,69.1,64.7,29.94,NE,55,3.0,5.0,86,0.00,,FEW,0.00,0.0,WeatherDisplay:10.37,2013-07-09 01:25:00,
2013-07-08 20:31:00,68.8,64.4,29.95,NE,54,2.3,2.3,86,0.00,,FEW,0.00,0.0,WeatherDisplay:10.37,2013-07-09 01:31:00,
2013-07-08 20:37:00,68.4,64.4,29.95,NE,54,2.3,2.3,87,0.00,,FEW,0.00,0.0,WeatherDisplay:10.37,2013-07-09 01:37:00,
2013-07-08 20:43:00,68.1,64.4,29.95,NE,54,3.5,3.5,88,0.00,,FEW,0.00,0.0,WeatherDisplay:10.37,2013-07-09 01:43:00,
2013-07-08 20:48:00,67.6,63.9,29.95,NE,54,3.5,3.5,88,0.00,,FEW,0.00,0.0,WeatherDisplay:10.37,2013-07-09 01:48:00,
2013-07-08 20:53:00,67.3,63.6,29.94,NE,54,4.6,4.6,88,0.00,,FEW,0.00,0.0,WeatherDisplay:10.37,2013-07-09 01:53:00,
2013-07-08 20:58:00,66.9,63.6,29.94,NE,53,5.8,5.8,89,0.00,,FEW,0.00,0.0,WeatherDisplay:10.37,2013-07-09 01:58:00,
2013-07-08 21:04:00,66.6,63.6,29.94,NE,52,3.5,3.5,90,0.00,,FEW,0.00,0.0,WeatherDisplay:10.37,2013-07-09 02:04:00,
2013-07-08 21:09:00,66.3,63.3,29.94,NE,52,3.5,3.5,90,0.00,,FEW,0.00,0.0,WeatherDisplay:10.37,2013-07-09 02:09:00,
2013-07-08 21:15:00,66.0,63.3,29.94,NE,52,3.0,3.0,91,0.00,,FEW,0.00,0.0,WeatherDisplay:10.37,2013-07-09 02:15:00,
2013-07-08 21:20:00,65.6,63.2,29.94,NE,52,2.0,4.0,92,0.00,,FEW,0.00,0.0,WeatherDisplay:10.37,2013-07-09 02:20:00,
2013-07-08 21:25:00,65.3,62.9,29.95,NE,52,2.3,2.3,92,0.00,,FEW,0.00,0.0,WeatherDisplay:10.37,2013-07-09 02:25:00,
2013-07-08 21:30:00,65.2,62.8,29.95,NE,52,0.0,3.0,92,0.00,,FEW,0.00,0.0,WeatherDisplay:10.37,2013-07-09 02:30:00,
2013-07-08 21:35:00,64.8,62.7,29.95,NE,52,2.3,2.3,93,0.00,,FEW,0.00,0.0,WeatherDisplay:10.37,2013-07-09 02:35:00,
2013-07-08 21:40:00,64.8,62.7,29.96,NE,52,3.5,3.5,93,0.00,,FEW,0.00,0.0,WeatherDisplay:10.37,2013-07-09 02:40:00,
2013-07-08 21:46:00,64.5,62.4,29.96,NE,52,3.5,3.5,93,0.00,,FEW,0.00,0.0,WeatherDisplay:10.37,2013-07-09 02:46:00,
2013-07-08 21:51:00,64.3,62.2,29.96,NE,52,3.5,3.5,93,0.00,,FEW,0.00,0.0,WeatherDisplay:10.37,2013-07-09 02:51:00,
2013-07-08 21:56:00,64.2,62.1,29.96,NE,52,3.5,3.5,93,0.00,,FEW,0.00,0.0,WeatherDisplay:10.37,2013-07-09 02:56:00,
2013-07-08 22:03:00,63.9,61.8,29.95,NE,52,3.5,3.5,93,0.00,,FEW,0.00,0.0,WeatherDisplay:10.37,2013-07-09 03:03:00,
2013-07-08 22:09:00,63.5,61.4,29.95,NE,52,3.5,3.5,93,0.00,,FEW,0.00,0.0,WeatherDisplay:10.37,2013-07-09 03:09:00,
2013-07-08 22:14:00,63.2,61.4,29.95,NE,52,2.3,2.3,94,0.00,,FEW,0.00,0.0,WeatherDisplay:10.37,2013-07-09 03:14:00,
2013-07-08 22:19:00,63.1,61.3,29.95,NE,52,3.5,3.5,94,0.00,,FEW,0.00,0.0,WeatherDisplay:10.37,2013-07-09 03:19:00,
2013-07-08 22:24:00,62.7,60.9,29.95,NE,52,3.5,3.5,94,0.00,,FEW,0.00,0.0,WeatherDisplay:10.37,2013-07-09 03:24:00,
2013-07-08 22:30:00,62.7,61.2,29.95,NE,52,2.0,4.0,95,0.00,,FEW,0.00,0.0,WeatherDisplay:10.37,2013-07-09 03:30:00,
2013-07-08 22:35:00,62.6,61.1,29.95,NE,52,3.5,3.5,95,0.00,,FEW,0.00,0.0,WeatherDisplay:10.37,2013-07-09 03:35:00,
2013-07-08 22:42:00,62.4,60.9,29.95,NE,52,3.5,3.5,95,0.00,,FEW,0.00,0.0,WeatherDisplay:10.37,2013-07-09 03:42:00,
2013-07-08 22:47:00,62.3,60.8,29.95,NE,52,2.3,2.3,95,0.00,,FEW,0.00,0.0,WeatherDisplay:10.37,2013-07-09 03:47:00,
2013-07-08 22:52:00,62.3,60.8,29.95,NE,52,3.5,3.5,95,0.00,,FEW,0.00,0.0,WeatherDisplay:10.37,2013-07-09 03:52:00,
2013-07-08 22:58:00,62.3,60.8,29.95,NE,52,3.5,3.5,95,0.00,,FEW,0.00,0.0,WeatherDisplay:10.37,2013-07-09 03:58:00,
2013-07-08 23:01:00,62.3,60.8,29.95,NE,52,3.0,3.0,95,0.00,,FEW,0.00,0.0,WeatherDisplay:10.37,2013-07-09 04:01:00,
2013-07-08 23:02:00,62.3,60.8,29.95,NE,52,3.5,3.5,95,0.00,,FEW,0.00,0.0,WeatherDisplay:10.37,2013-07-09 04:02:00,
2013-07-08 23:03:00,62.3,60.6,29.95,NE,52,2.3,2.3,94,0.00,,FEW,0.00,0.0,WeatherDisplay:10.37,2013-07-09 04:03:00,
2013-07-08 23:08:00,62.3,60.6,29.95,NE,52,2.3,2.3,94,0.00,,FEW,0.00,0.0,WeatherDisplay:10.37,2013-07-09 04:08:00,
2013-07-08 23:13:00,62.1,60.4,29.96,NE,52,3.5,3.5,94,0.00,,FEW,0.00,0.0,WeatherDisplay:10.37,2013-07-09 04:13:00,
2013-07-08 23:19:00,62.1,60.4,29.96,NE,52,2.3,2.3,94,0.00,,FEW,0.00,0.0,WeatherDisplay:10.37,2013-07-09 04:19:00,
2013-07-08 23:24:00,62.1,60.4,29.95,NE,52,4.0,4.0,94,0.00,,FEW,0.00,0.0,WeatherDisplay:10.37,2013-07-09 04:24:00,
2013-07-08 23:29:00,62.0,60.0,29.96,NE,52,4.0,4.0,93,0.00,,FEW,0.00,0.0,WeatherDisplay:10.37,2013-07-09 04:29:00,
2013-07-08 23:34:00,62.0,60.0,29.96,NE,52,4.0,4.0,93,0.00,,FEW,0.00,0.0,WeatherDisplay:10.37,2013-07-09 04:34:00,
2013-07-08 23:39:00,61.8,59.8,29.96,NE,52,3.5,3.5,93,0.00,,FEW,0.00,0.0,WeatherDisplay:10.37,2013-07-09 04:39:00,
2013-07-08 23:44:00,61.8,59.8,29.96,NE,52,2.3,2.3,93,0.00,,FEW,0.00,0.0,WeatherDisplay:10.37,2013-07-09 04:44:00,
2013-07-08 23:49:00,61.6,59.6,29.96,NE,52,2.3,0.0,93,0.00,,FEW,0.00,0.0,WeatherDisplay:10.37,2013-07-09 04:49:00,
2013-07-08 23:54:00,61.6,59.6,29.97,NE,52,2.3,2.3,93,0.00,,FEW,0.00,0.0,WeatherDisplay:10.37,2013-07-09 04:54:00,